| time (UTC) | temp F | wind direction | speed knots | gust knots | rain 1hr in | rain 24hr in | rain mn in | humidity % | barometer mb |
| 20260502180511 | 0 | 0.0 | 0.0 | 0.00 | 0.01 | 0.01 | 1020.7 | ||
| 20260502170518 | 0 | 0.0 | 0.0 | 0.00 | 0.01 | 0.01 | 1021.3 | ||
| 20260502164012 | 0 | 0.0 | 0.0 | 0.00 | 0.01 | 0.01 | 1021.5 | ||
| 20260502163514 | 0 | 0.0 | 0.0 | 0.00 | 0.01 | 0.01 | 1021.4 | ||
| 20260502163040 | 0 | 0.0 | 0.0 | 0.00 | 0.01 | 0.01 | 1021.4 | ||
| 20260502162512 | 0 | 0.0 | 0.0 | 0.00 | 0.01 | 0.01 | 1021.4 | ||
| 20260502162016 | 0 | 0.0 | 0.0 | 0.00 | 0.01 | 0.01 | 1021.4 | ||
| 20260502161539 | 0 | 0.0 | 0.0 | 0.00 | 0.01 | 0.01 | 1021.5 | ||
| 20260502161011 | 0 | 0.0 | 0.0 | 0.00 | 0.01 | 0.01 | 1021.5 | ||
| 20260502160513 | 0 | 0.0 | 0.0 | 0.00 | 0.01 | 0.01 | 1021.5 | ||
| 20260502152014 | 0 | 0.0 | 0.0 | 0.00 | 0.01 | 0.01 | 1021.5 | ||
| 20260502151530 | 0 | 0.0 | 0.0 | 0.00 | 0.01 | 0.01 | 1021.4 | ||
| 20260502151012 | 0 | 0.0 | 0.0 | 0.00 | 0.01 | 0.01 | 1021.2 | ||
| 20260502150510 | 0 | 0.0 | 0.0 | 0.00 | 0.01 | 0.01 | 1021.2 | ||
| 20260502130512 | 0 | 0.0 | 0.0 | 0.00 | 0.01 | 0.01 | 1019.9 | ||
| 20260502123510 | 0 | 0.0 | 0.0 | 0.00 | 0.01 | 0.01 | 1019.3 | ||
| 20260502123045 | 0 | 0.0 | 0.0 | 0.00 | 0.01 | 0.01 | 1019.3 | ||
| 20260502122512 | 0 | 0.0 | 0.0 | 0.00 | 0.01 | 0.01 | 1019.4 | ||
| 20260502122014 | 0 | 0.0 | 0.0 | 0.00 | 0.01 | 0.01 | 1019.3 | ||
| 20260502121530 | 0 | 0.0 | 0.0 | 0.00 | 0.01 | 0.01 | 1019.2 | ||
| 20260502121010 | 49 | 0.0 | 0.0 | 0.00 | 0.01 | 0.01 | 94 | 1019.1 | |
| 20260502120516 | 49 | 28 | 0.0 | 0.0 | 0.00 | 0.01 | 0.01 | 94 | 1019.1 |
| 20260502114006 | 49 | 28 | 0.0 | 0.0 | 0.00 | 0.01 | 0.01 | 94 | 1018.7 |
| 20260502113506 | 49 | 28 | 0.0 | 0.0 | 0.00 | 0.01 | 0.01 | 94 | 1018.6 |
| 20260502113037 | 0 | 0.0 | 0.0 | 0.00 | 0.01 | 0.01 | 1018.5 | ||
| 20260502112512 | 49 | 0.0 | 0.0 | 0.00 | 0.01 | 0.01 | 94 | 1018.4 | |
| 20260502112012 | 49 | 28 | 0.0 | 0.9 | 0.00 | 0.01 | 0.01 | 94 | 1018.3 |
| 20260502110025 | 50 | 28 | 0.0 | 0.0 | 0.00 | 0.01 | 0.01 | 94 | 1018.2 |
| 20260502105507 | 50 | 28 | 0.0 | 0.0 | 0.00 | 0.01 | 0.01 | 94 | 1018.2 |
| 20260502103507 | 49 | 28 | 0.0 | 0.0 | 0.00 | 0.01 | 0.01 | 94 | 1018.0 |
| 20260502103018 | 49 | 28 | 0.0 | 0.0 | 0.00 | 0.01 | 0.01 | 94 | 1018.0 |
| 20260502102011 | 49 | 28 | 0.0 | 0.9 | 0.00 | 0.01 | 0.01 | 94 | 1017.8 |
| 20260502101503 | 49 | 28 | 0.0 | 0.9 | 0.00 | 0.01 | 0.01 | 94 | 1017.7 |
| 20260502101003 | 49 | 28 | 0.0 | 1.7 | 0.00 | 0.01 | 0.01 | 94 | 1017.7 |
| 20260502100503 | 49 | 28 | 0.0 | 1.7 | 0.00 | 0.01 | 0.01 | 94 | 1017.6 |
| 20260502091521 | 49 | 28 | 0.0 | 0.0 | 0.00 | 0.01 | 0.01 | 94 | 1017.4 |
| 20260502091009 | 49 | 28 | 0.0 | 0.0 | 0.00 | 0.01 | 0.01 | 94 | 1017.3 |
| 20260502090506 | 49 | 28 | 0.0 | 0.0 | 0.00 | 0.02 | 0.01 | 94 | 1017.2 |
| 20260502071516 | 51 | 28 | 0.0 | 0.9 | 0.00 | 0.01 | 0.00 | 94 | 1016.5 |
| 20260502071006 | 51 | 28 | 0.0 | 0.9 | 0.00 | 0.01 | 0.00 | 94 | 1016.5 |
| 20260502070512 | 51 | 28 | 0.0 | 0.0 | 0.00 | 0.02 | 0.00 | 94 | 1016.5 |
| 20260502070020 | 51 | 28 | 0.0 | 0.0 | 0.00 | 0.02 | 0.00 | 94 | 1016.4 |
| 20260502065507 | 51 | 28 | 0.0 | 0.0 | 0.00 | 0.02 | 0.00 | 94 | 1016.5 |
| 20260502065016 | 51 | 29 | 0.0 | 0.0 | 0.00 | 0.02 | 0.00 | 94 | 1016.5 |
| 20260502064524 | 51 | 29 | 0.0 | 0.0 | 0.00 | 0.02 | 0.00 | 94 | 1016.6 |
| 20260502064006 | 51 | 29 | 0.0 | 0.9 | 0.00 | 0.02 | 0.00 | 94 | 1016.6 |
| 20260502063507 | 52 | 29 | 0.0 | 0.9 | 0.00 | 0.02 | 0.00 | 94 | 1016.7 |
| 20260502063021 | 52 | 29 | 0.0 | 0.9 | 0.00 | 0.02 | 0.00 | 94 | 1016.8 |
| 20260502062513 | 52 | 29 | 0.0 | 0.9 | 0.00 | 0.02 | 0.00 | 94 | 1016.8 |
| 20260502062012 | 52 | 29 | 0.0 | 0.9 | 0.00 | 0.02 | 0.00 | 94 | 1016.7 |
| 20260502061509 | 52 | 28 | 0.0 | 0.0 | 0.00 | 0.02 | 0.00 | 94 | 1016.7 |
| 20260502061005 | 52 | 28 | 0.0 | 0.0 | 0.00 | 0.02 | 0.00 | 94 | 1016.7 |
| 20260502060508 | 52 | 28 | 0.0 | 0.9 | 0.00 | 0.02 | 0.00 | 94 | 1016.8 |
| 20260502060017 | 52 | 28 | 0.0 | 0.9 | 0.00 | 0.02 | 0.00 | 94 | 1016.7 |
| 20260502055507 | 52 | 28 | 0.0 | 0.9 | 0.00 | 0.02 | 0.00 | 94 | 1016.7 |
| 20260502055010 | 52 | 28 | 0.0 | 0.9 | 0.00 | 0.02 | 0.00 | 94 | 1016.8 |
| 20260502054520 | 52 | 28 | 0.0 | 0.9 | 0.00 | 0.02 | 0.00 | 94 | 1016.9 |
| 20260502054009 | 52 | 28 | 0.0 | 0.9 | 0.00 | 0.02 | 0.00 | 94 | 1016.9 |
| 20260502053508 | 52 | 336 | 0.0 | 0.9 | 0.00 | 0.02 | 0.00 | 94 | 1016.8 |
| 20260502053025 | 52 | 336 | 0.0 | 0.9 | 0.00 | 0.02 | 0.00 | 94 | 1016.9 |
| 20260502052507 | 52 | 15 | 0.0 | 0.9 | 0.00 | 0.02 | 0.00 | 94 | 1017.0 |
| 20260502052009 | 53 | 14 | 0.0 | 0.9 | 0.00 | 0.02 | 0.00 | 94 | 1017.0 |
| 20260502051508 | 53 | 14 | 0.0 | 0.0 | 0.00 | 0.02 | 0.00 | 94 | 1017.1 |
| 20260502051005 | 53 | 14 | 0.0 | 0.0 | 0.00 | 0.02 | 0.00 | 94 | 1017.1 |
| 20260502050505 | 53 | 14 | 0.0 | 0.0 | 0.00 | 0.03 | 0.00 | 94 | 1017.1 |
| 20260502050009 | 53 | 14 | 0.0 | 0.0 | 0.00 | 0.03 | 0.00 | 94 | 1017.2 |
| 20260502045506 | 53 | 14 | 0.0 | 1.7 | 0.00 | 0.03 | 0.03 | 94 | 1017.2 |
| 20260502045008 | 53 | 360 | 0.0 | 2.6 | 0.00 | 0.03 | 0.03 | 94 | 1017.2 |
| 20260502044515 | 53 | 258 | 0.9 | 2.6 | 0.00 | 0.03 | 0.03 | 94 | 1017.3 |
| 20260502044002 | 53 | 127 | 0.0 | 0.0 | 0.00 | 0.03 | 0.03 | 94 | 1017.2 |
| 20260502043503 | 53 | 37 | 0.0 | 0.9 | 0.00 | 0.03 | 0.03 | 94 | 1017.3 |
| 20260502043003 | 53 | 37 | 0.0 | 1.7 | 0.00 | 0.03 | 0.03 | 94 | 1017.3 |
| 20260502042504 | 53 | 37 | 0.0 | 1.7 | 0.00 | 0.03 | 0.03 | 94 | 1017.2 |
| 20260502042007 | 53 | 37 | 0.0 | 1.7 | 0.00 | 0.03 | 0.03 | 94 | 1017.3 |
| 20260502041509 | 53 | 57 | 0.0 | 0.0 | 0.00 | 0.03 | 0.03 | 94 | 1017.3 |
| 20260502041006 | 53 | 57 | 0.0 | 1.7 | 0.00 | 0.03 | 0.03 | 94 | 1017.1 |
| 20260502040507 | 53 | 87 | 0.0 | 1.7 | 0.00 | 0.03 | 0.03 | 94 | 1017.1 |
| 20260502040008 | 53 | 113 | 0.0 | 1.7 | 0.00 | 0.03 | 0.03 | 94 | 1017.1 |
| 20260502035503 | 53 | 339 | 0.0 | 1.7 | 0.00 | 0.04 | 0.03 | 94 | 1017.0 |
| 20260502035009 | 53 | 31 | 0.0 | 2.6 | 0.00 | 0.04 | 0.03 | 94 | 1017.1 |
| 20260502034517 | 53 | 52 | 0.9 | 2.6 | 0.00 | 0.04 | 0.03 | 94 | 1017.1 |
| 20260502034008 | 53 | 49 | 0.9 | 2.6 | 0.00 | 0.04 | 0.03 | 94 | 1016.9 |
| 20260502033505 | 53 | 51 | 0.0 | 2.6 | 0.00 | 0.04 | 0.03 | 94 | 1016.7 |
| 20260502033015 | 53 | 25 | 0.0 | 5.2 | 0.00 | 0.04 | 0.03 | 94 | 1016.5 |
| 20260502032507 | 53 | 135 | 0.0 | 5.2 | 0.00 | 0.04 | 0.03 | 94 | 1016.4 |
| 20260502032002 | 53 | 56 | 0.0 | 4.3 | 0.00 | 0.04 | 0.03 | 94 | 1016.3 |
| 20260502031504 | 54 | 61 | 1.7 | 4.3 | 0.00 | 0.04 | 0.03 | 94 | 1016.3 |
| 20260502031005 | 54 | 59 | 0.9 | 3.5 | 0.00 | 0.04 | 0.03 | 94 | 1016.3 |
| 20260502030504 | 54 | 228 | 0.9 | 2.6 | 0.00 | 0.04 | 0.03 | 94 | 1016.4 |
| 20260502030006 | 54 | 36 | 0.9 | 2.6 | 0.00 | 0.04 | 0.03 | 94 | 1016.4 |
| 20260502025508 | 54 | 10 | 0.0 | 2.6 | 0.00 | 0.04 | 0.03 | 94 | 1016.0 |
| 20260502025003 | 54 | 123 | 0.0 | 2.6 | 0.00 | 0.04 | 0.03 | 94 | 1015.9 |
| 20260502024514 | 54 | 30 | 0.9 | 2.6 | 0.00 | 0.04 | 0.03 | 94 | 1015.8 |
| 20260502024008 | 54 | 60 | 0.0 | 2.6 | 0.00 | 0.04 | 0.03 | 94 | 1015.8 |
| 20260502023507 | 54 | 62 | 0.0 | 2.6 | 0.00 | 0.04 | 0.03 | 94 | 1016.4 |
| 20260502023019 | 54 | 10 | 0.9 | 2.6 | 0.00 | 0.04 | 0.03 | 94 | 1016.5 |
| 20260502022505 | 54 | 56 | 0.0 | 1.7 | 0.00 | 0.04 | 0.03 | 94 | 1015.8 |
| 20260502022009 | 54 | 306 | 0.0 | 3.5 | 0.00 | 0.04 | 0.03 | 94 | 1015.6 |
| 20260502021006 | 54 | 263 | 0.0 | 2.6 | 0.00 | 0.04 | 0.03 | 94 | 1015.3 |
| 20260502020509 | 54 | 263 | 0.0 | 4.3 | 0.00 | 0.04 | 0.03 | 94 | 1015.0 |
| 20260502020006 | 54 | 30 | 0.9 | 4.3 | 0.00 | 0.04 | 0.03 | 94 | 1014.9 |
| 20260502015505 | 54 | 55 | 0.9 | 2.6 | 0.00 | 0.04 | 0.03 | 94 | 1014.9 |
| 20260502015005 | 54 | 38 | 0.9 | 2.6 | 0.00 | 0.04 | 0.03 | 94 | 1015.2 |
| 20260502014511 | 54 | 74 | 0.0 | 3.5 | 0.00 | 0.05 | 0.03 | 94 | 1015.2 |
| 20260502014003 | 54 | 58 | 0.0 | 3.5 | 0.00 | 0.05 | 0.03 | 94 | 1015.3 |
| 20260502013503 | 54 | 18 | 0.0 | 2.6 | 0.00 | 0.05 | 0.03 | 94 | 1015.2 |
| 20260502013013 | 54 | 280 | 0.0 | 2.6 | 0.00 | 0.05 | 0.03 | 94 | 1015.2 |
| 20260502012505 | 53 | 165 | 0.0 | 1.7 | 0.00 | 0.05 | 0.03 | 94 | 1015.0 |
| 20260502012013 | 53 | 26 | 0.0 | 0.0 | 0.00 | 0.05 | 0.03 | 94 | 1014.8 |
| 20260502011518 | 53 | 26 | 0.0 | 0.0 | 0.00 | 0.05 | 0.03 | 94 | 1014.8 |
| 20260502011009 | 53 | 265 | 0.0 | 1.7 | 0.00 | 0.05 | 0.03 | 94 | 1014.9 |
| 20260502010513 | 53 | 257 | 0.0 | 1.7 | 0.00 | 0.05 | 0.03 | 94 | 1014.7 |
| 20260502010025 | 53 | 341 | 0.0 | 0.0 | 0.00 | 0.06 | 0.03 | 94 | 1014.5 |
| 20260502004010 | 53 | 313 | 0.9 | 3.5 | 0.00 | 0.06 | 0.03 | 94 | 1014.5 |
| 20260502003505 | 54 | 51 | 0.0 | 3.5 | 0.00 | 0.06 | 0.03 | 94 | 1014.4 |
| 20260502003012 | 54 | 35 | 0.9 | 3.5 | 0.00 | 0.06 | 0.03 | 94 | 1014.4 |
| 20260502002508 | 54 | 50 | 1.7 | 0.0 | 0.00 | 0.06 | 0.03 | 94 | 1014.2 |
| 20260502002011 | 0 | 0.0 | 0.0 | 0.00 | 0.06 | 0.03 | 1014.1 | ||
| 20260502001523 | 0 | 0.0 | 0.0 | 0.00 | 0.06 | 0.03 | 1013.8 | ||
| 20260502001012 | 0 | 0.0 | 0.0 | 0.00 | 0.06 | 0.03 | 1013.5 | ||
| 20260502000509 | 0 | 0.0 | 0.0 | 0.00 | 0.06 | 0.03 | 1013.1 | ||
| 20260502000021 | 0 | 0.0 | 0.0 | 0.00 | 0.06 | 0.03 | 1013.0 | ||
| 20260501235511 | 0 | 0.0 | 0.0 | 0.00 | 0.06 | 0.03 | 1013.0 | ||
| 20260501235011 | 0 | 0.0 | 0.0 | 0.00 | 0.06 | 0.03 | 1013.1 | ||
| 20260501234521 | 0 | 0.0 | 0.0 | 0.00 | 0.06 | 0.03 | 1013.0 | ||
| 20260501233515 | 0 | 0.0 | 0.0 | 0.00 | 0.06 | 0.03 | 1012.9 | ||
| 20260501233024 | 0 | 0.0 | 0.0 | 0.00 | 0.06 | 0.03 | 1012.8 | ||
| 20260501232508 | 0 | 0.0 | 0.0 | 0.00 | 0.06 | 0.03 | 1012.4 | ||
| 20260501232010 | 0 | 0.0 | 0.0 | 0.00 | 0.06 | 0.03 | 1012.6 | ||
| 20260501231523 | 0 | 0.0 | 0.0 | 0.00 | 0.06 | 0.03 | 1013.0 | ||
| 20260501231008 | 0 | 0.0 | 0.0 | 0.00 | 0.06 | 0.03 | 1013.1 | ||
| 20260501230508 | 0 | 0.0 | 0.0 | 0.00 | 0.06 | 0.03 | 1013.4 | ||
| 20260501230024 | 0 | 0.0 | 0.0 | 0.00 | 0.06 | 0.03 | 1013.5 | ||
| 20260501225511 | 0 | 0.0 | 0.0 | 0.00 | 0.06 | 0.03 | 1013.6 | ||
| 20260501225013 | 0 | 0.0 | 0.0 | 0.00 | 0.06 | 0.03 | 1013.6 | ||
| 20260501224528 | 0 | 0.0 | 0.0 | 0.00 | 0.06 | 0.03 | 1013.6 | ||
| 20260501224010 | 0 | 0.0 | 0.0 | 0.00 | 0.06 | 0.03 | 1014.0 | ||
| 20260501223510 | 0 | 0.0 | 0.0 | 0.00 | 0.06 | 0.03 | 1014.9 | ||
| 20260501223026 | 0 | 0.0 | 0.0 | 0.00 | 0.06 | 0.03 | 1014.9 | ||
| 20260501222507 | 0 | 0.0 | 0.0 | 0.00 | 0.06 | 0.03 | 1014.5 | ||
| 20260501222016 | 0 | 0.0 | 0.0 | 0.00 | 0.06 | 0.03 | 1014.1 | ||
| 20260501221524 | 0 | 0.0 | 0.0 | 0.00 | 0.06 | 0.03 | 1013.6 | ||
| 20260501221008 | 0 | 0.0 | 0.0 | 0.00 | 0.06 | 0.03 | 1013.3 | ||
| 20260501220511 | 0 | 0.0 | 0.0 | 0.00 | 0.06 | 0.03 | 1013.2 | ||
| 20260501220022 | 0 | 0.0 | 0.0 | 0.00 | 0.06 | 0.03 | 1013.0 | ||
| 20260501215508 | 0 | 0.0 | 0.0 | 0.00 | 0.06 | 0.03 | 1012.7 | ||
| 20260501215009 | 0 | 0.0 | 0.0 | 0.00 | 0.06 | 0.03 | 1012.5 | ||
| 20260501214538 | 0 | 0.0 | 0.0 | 0.00 | 0.06 | 0.03 | 1012.1 | ||
| 20260501214009 | 0 | 0.0 | 0.0 | 0.00 | 0.06 | 0.03 | 1012.5 | ||
| 20260501213509 | 0 | 0.0 | 0.0 | 0.00 | 0.06 | 0.03 | 1013.2 | ||
| 20260501213025 | 0 | 0.0 | 0.0 | 0.00 | 0.06 | 0.03 | 1013.1 | ||
| 20260501212013 | 0 | 0.0 | 0.0 | 0.00 | 0.06 | 0.03 | 1012.6 | ||
| 20260501211527 | 0 | 0.0 | 0.0 | 0.00 | 0.06 | 0.03 | 1012.9 | ||
| 20260501211012 | 0 | 0.0 | 0.0 | 0.00 | 0.06 | 0.03 | 1012.9 | ||
| 20260501210508 | 0 | 0.0 | 0.0 | 0.00 | 0.06 | 0.03 | 1012.9 | ||
| 20260501210026 | 0 | 0.0 | 0.0 | 0.00 | 0.06 | 0.03 | 1012.6 | ||
| 20260501205508 | 0 | 0.0 | 0.0 | 0.00 | 0.06 | 0.03 | 1012.4 | ||
| 20260501205008 | 0 | 0.0 | 0.0 | 0.00 | 0.06 | 0.03 | 1012.1 | ||
| 20260501204527 | 0 | 0.0 | 0.0 | 0.00 | 0.06 | 0.03 | 1011.9 | ||
| 20260501204007 | 0 | 0.0 | 0.0 | 0.00 | 0.06 | 0.03 | 1011.7 | ||
| 20260501203509 | 0 | 0.0 | 0.0 | 0.00 | 0.06 | 0.03 | 1011.7 | ||
| 20260501203029 | 0 | 0.0 | 0.0 | 0.00 | 0.06 | 0.03 | 1011.9 | ||
| 20260501202509 | 0 | 0.0 | 0.0 | 0.00 | 0.06 | 0.03 | 1012.1 | ||
| 20260501202010 | 0 | 0.0 | 0.0 | 0.00 | 0.06 | 0.03 | 1011.6 | ||
| 20260501201528 | 0 | 0.0 | 0.0 | 0.00 | 0.06 | 0.03 | 1011.2 | ||
| 20260501201006 | 0 | 0.0 | 0.0 | 0.00 | 0.06 | 0.03 | 1010.7 | ||
| 20260501200512 | 0 | 0.0 | 0.0 | 0.00 | 0.06 | 0.03 | 1012.0 | ||
| 20260501200034 | 0 | 0.0 | 0.0 | 0.00 | 0.06 | 0.03 | 1012.3 | ||
| 20260501195509 | 0 | 0.0 | 0.0 | 0.00 | 0.06 | 0.03 | 1011.9 | ||
| 20260501195007 | 0 | 0.0 | 0.0 | 0.00 | 0.06 | 0.03 | 1011.5 | ||
| 20260501194534 | 0 | 0.0 | 0.0 | 0.00 | 0.06 | 0.03 | 1011.2 | ||
| 20260501194007 | 0 | 0.0 | 0.0 | 0.00 | 0.06 | 0.03 | 1011.0 | ||
| 20260501193508 | 0 | 0.0 | 0.0 | 0.00 | 0.06 | 0.03 | 1011.0 | ||
| 20260501193029 | 0 | 0.0 | 0.0 | 0.00 | 0.06 | 0.03 | 1011.2 | ||
| 20260501192510 | 0 | 0.0 | 0.0 | 0.00 | 0.06 | 0.03 | 1011.1 | ||
| 20260501192008 | 0 | 0.0 | 0.0 | 0.00 | 0.06 | 0.03 | 1010.9 | ||
| 20260501191529 | 0 | 0.0 | 0.0 | 0.00 | 0.06 | 0.03 | 1010.7 | ||
| 20260501191018 | 0 | 0.0 | 0.0 | 0.00 | 0.06 | 0.03 | 1010.6 | ||
| 20260501190513 | 0 | 0.0 | 0.0 | 0.00 | 0.06 | 0.03 | 1010.7 | ||
| 20260501190039 | 0 | 0.0 | 0.0 | 0.00 | 0.06 | 0.03 | 1011.1 | ||
| 20260501185507 | 0 | 0.0 | 0.0 | 0.00 | 0.06 | 0.03 | 1011.0 | ||
| 20260501185011 | 0 | 0.0 | 0.0 | 0.00 | 0.06 | 0.03 | 1011.1 | ||
| 20260501184526 | 0 | 0.0 | 0.0 | 0.00 | 0.06 | 0.03 | 1011.3 | ||
| 20260501184011 | 0 | 0.0 | 0.0 | 0.00 | 0.06 | 0.03 | 1011.8 | ||
| 20260501183509 | 0 | 0.0 | 0.0 | 0.00 | 0.06 | 0.03 | 1012.3 | ||
| 20260501183027 | 0 | 0.0 | 0.0 | 0.00 | 0.06 | 0.03 | 1012.5 | ||
| 20260501182507 | 0 | 0.0 | 0.0 | 0.00 | 0.06 | 0.03 | 1013.0 | ||
| 20260501182010 | 0 | 0.0 | 0.0 | 0.00 | 0.06 | 0.03 | 1012.9 | ||
| 20260501181531 | 0 | 0.0 | 0.0 | 0.00 | 0.06 | 0.03 | 1012.8 | ||
| 20260501181008 | 0 | 0.0 | 0.0 | 0.00 | 0.06 | 0.03 | 1013.1 |